Location: Unspecified
(43.8044°N, 11.0278°E)
Time: 13:54:03
(UTC+02:00)

CZ-3 Stage 3 - Visible Passes

Search period start: 31 May 2016 00:00
Search period end: 10 June 2016 00:00
Orbit: 425 x 34779 km, 30.4° (Epoch: 31 May)

Date Brightness Start Highest point End Pass type
(mag) Time Alt. Az. Time Alt. Az. Time Alt. Az.
01 Jun 4.6 02:02:32 10° WSW 02:27:59 35° SSW 02:33:14 10° SE visible
01 Jun 6.2 16:57:46 10° S 22:39:35 36° SSE 22:56:50 10° ESE visible
04 Jun 4.6 01:53:27 10° WSW 02:19:33 36° SSW 02:24:50 10° SE visible
04 Jun 6.2 16:41:44 10° S 22:31:19 37° SSE 22:48:32 10° ESE visible
07 Jun 4.6 01:44:22 10° WSW 02:11:07 37° SSW 02:16:24 10° SE visible
07 Jun 6.2 16:25:55 10° S 22:23:03 39° SSE 22:40:14 10° ESE visible
